Jefferson, NC

10:52 PM EST on November 19, 2019 (GMT -0500)
Ashe County

Weather History for KGEV - September, 2019

Change the Weather History Date:

Saturday, September 14, 2019

  Actual Average Record
Temperature  
Mean Temperature 70 °F -  
Max Temperature 76 °F 75 °F 84 °F (1970)
Min Temperature 63 °F 52 °F 30 °F (1985)
Cooling Degree Days 4    
Growing Degree Days 20 (Base 50)    
Moisture  
Dew Point 66 °F    
Average Humidity 96    
Maximum Humidity 100    
Minimum Humidity 69    
Precipitation  
Precipitation 0.01 in - - ()
Sea Level Pressure  
Sea Level Pressure 30.35 in    
Wind  
Wind Speed 1 mph ()    
Max Wind Speed 5 mph    
Max Gust Speed -    
Visibility 4.9 miles    
Events Fog , Rain , Thunderstorm    
Averages and records for this station are not official NWS values.
T = Trace of Precipitation, MM = Missing Value Source: Averaged Metar Reports

Daily Weather History Graph

Daily Weather History Graph

Search for Another Location

Airport or City:

Astronomy

Sep. 14, 2019 Rise Set
Actual Time 7:07 AM EDT 7:34 PM EDT
Civil Twilight 6:41 AM EDT 8:00 PM EDT
Nautical Twilight 6:10 AM EDT 8:31 PM EDT
Astronomical Twilight 5:39 AM EDT 9:02 PM EDT
Moon 8:15 PM EDT (9/14) 7:20 AM EDT (9/14)
Length of Visible Light 13h 19m
Length of Day
12h 27m
Full, 100% of the Moon is Illuminated
Sep 14
Full
Sep 21
Last Quarter
Sep 28
New
Oct 5
First Quarter
Oct 13
Full

Hourly Weather History & Observations

Time (EDT) Temp. Dew Point Humidity Pressure Visibility Wind Dir Wind Speed Gust Speed Precip Events Conditions
12:15 AM 66.2 °F 66.2 °F 100% 30.39 in 2.5 mi WSW 3.5 mph - 0.03 in Rain , Thunderstorm Heavy Thunderstorms and Rain
12:35 AM 65.7 °F 65.7 °F 100% 30.38 in 2.0 mi WSW 3.5 mph - 0.08 in Rain , Thunderstorm Light Thunderstorms and Rain
1:15 AM 65.5 °F 65.5 °F 100% 30.38 in 1.0 mi Calm Calm - N/A Thunderstorm Overcast
1:35 AM 65.3 °F 65.3 °F 100% 30.38 in 2.5 mi Calm Calm - N/A   Overcast
1:55 AM 65.3 °F 65.3 °F 100% 30.38 in 1.5 mi Calm Calm - N/A   Overcast
2:15 AM 65.3 °F 65.3 °F 100% 30.37 in 1.0 mi Calm Calm - N/A   Overcast
3:15 AM 65.3 °F 65.3 °F 100% 30.36 in 0.5 mi Calm Calm - 0.01 in Rain Light Rain
3:35 AM 65.3 °F 65.3 °F 100% 30.36 in 0.2 mi Calm Calm - 0.01 in Fog Fog
3:55 AM 65.3 °F 65.3 °F 100% 30.35 in 0.5 mi Calm Calm - 0.01 in   Light Drizzle
4:15 AM 65.3 °F 65.3 °F 100% 30.35 in 0.5 mi WSW 3.5 mph - N/A Rain Light Rain
4:35 AM 64.8 °F 64.8 °F 100% 30.35 in 1.0 mi WSW 3.5 mph - N/A   Overcast
5:15 AM 64.4 °F 64.4 °F 100% 30.36 in 1.5 mi Calm Calm - N/A   Overcast
5:35 AM 64.4 °F 64.4 °F 100% 30.36 in 0.8 mi Calm Calm - N/A   Drizzle
5:55 AM 64.0 °F 64.0 °F 100% 30.36 in 1.5 mi Calm Calm - N/A   Overcast
6:15 AM 64.0 °F 64.0 °F 100% 30.36 in 1.0 mi Calm Calm - N/A   Overcast
6:35 AM 63.7 °F 63.7 °F 100% 30.36 in 1.2 mi Calm Calm - N/A   Overcast
7:15 AM 63.5 °F 63.5 °F 100% 30.37 in 1.5 mi Calm Calm - N/A   Overcast
7:35 AM 63.5 °F 63.5 °F 100% 30.37 in 0.2 mi Calm Calm - N/A Fog Fog
7:55 AM 63.7 °F 63.7 °F 100% 30.37 in 0.2 mi Calm Calm - N/A Fog Fog
8:15 AM 63.9 °F 63.9 °F 100% 30.37 in 0.2 mi Calm Calm - N/A Fog Fog
9:15 AM 64.0 °F 64.0 °F 100% 30.40 in 0.2 mi Calm Calm - N/A Fog Fog
9:35 AM 64.6 °F 64.6 °F 100% 30.40 in 0.5 mi WSW 3.5 mph - N/A Fog Fog
9:55 AM 64.8 °F 64.8 °F 100% 30.40 in 3.0 mi Calm Calm - N/A   Overcast
10:15 AM 65.8 °F 65.8 °F 100% 30.40 in 7.0 mi Calm Calm - N/A   Overcast
10:35 AM 65.8 °F 65.8 °F 100% 30.40 in 10.0 mi Calm Calm - N/A   Overcast
11:15 AM 67.3 °F 67.1 °F 99% 30.38 in 10.0 mi Calm Calm - N/A   Overcast
11:35 AM 68.9 °F 67.8 °F 96% 30.38 in 10.0 mi Calm Calm - N/A   Overcast
11:55 AM 69.3 °F 67.3 °F 93% 30.38 in 10.0 mi WSW 3.5 mph - N/A   Overcast
12:15 PM 70.9 °F 67.3 °F 88% 30.38 in 10.0 mi Calm Calm - N/A   Overcast
12:35 PM 73.6 °F 69.1 °F 86% 30.37 in 10.0 mi Calm Calm - N/A   Overcast
1:15 PM 71.8 °F 68.0 °F 88% 30.37 in 10.0 mi WSW 3.5 mph - N/A   Overcast
1:35 PM 72.3 °F 68.2 °F 87% 30.36 in 10.0 mi Calm Calm - N/A   Mostly Cloudy
1:55 PM 76.8 °F 66.0 °F 69% 30.35 in 10.0 mi WSW 4.6 mph - N/A   Scattered Clouds
2:15 PM 73.9 °F 68.2 °F 82% 30.35 in 10.0 mi Calm Calm - N/A   Mostly Cloudy
2:35 PM 75.0 °F 66.4 °F 74% 30.34 in 10.0 mi WSW 4.6 mph - N/A Rain Light Rain
3:15 PM 75.0 °F 68.2 °F 79% 30.32 in 10.0 mi Calm Calm - N/A   Overcast
3:35 PM 74.8 °F 69.8 °F 84% 30.31 in 10.0 mi Calm Calm - N/A   Mostly Cloudy
3:55 PM 72.9 °F 68.9 °F 87% 30.31 in 10.0 mi Calm Calm - N/A   Mostly Cloudy
4:15 PM 72.9 °F 69.6 °F 90% 30.31 in 10.0 mi WSW 3.5 mph - N/A   Mostly Cloudy
4:35 PM 72.7 °F 68.7 °F 87% 30.30 in 10.0 mi WSW 3.5 mph - N/A   Mostly Cloudy
5:15 PM 68.9 °F 68.0 °F 97% 30.31 in 10.0 mi Calm Calm - N/A   Scattered Clouds
5:35 PM 68.9 °F 67.8 °F 96% 30.30 in 10.0 mi WSW 3.5 mph - N/A   Clear
5:55 PM 69.6 °F 68.0 °F 95% 30.31 in 10.0 mi Calm Calm - N/A   Mostly Cloudy
6:15 PM 68.4 °F 67.6 °F 98% 30.31 in 7.0 mi WSW 3.5 mph - N/A Rain , Thunderstorm Light Thunderstorms and Rain
6:35 PM 68.2 °F 68.0 °F 99% 30.31 in 7.0 mi Calm Calm - N/A   Overcast
7:15 PM 67.6 °F 67.5 °F 99% 30.32 in 4.0 mi Calm Calm - N/A   Overcast
7:35 PM 67.3 °F 67.3 °F 100% 30.33 in 0.5 mi Calm Calm - N/A Fog Fog
8:15 PM 67.3 °F 67.3 °F 100% 30.33 in 0.2 mi Calm Calm - N/A Fog Fog
8:35 PM 67.1 °F 67.1 °F 100% 30.33 in 0.5 mi Calm Calm - N/A Fog Fog
9:15 PM 67.1 °F 67.1 °F 100% 30.32 in 4.0 mi Calm Calm - N/A   Overcast
9:35 PM 66.6 °F 66.6 °F 100% 30.33 in 1.8 mi Calm Calm - N/A   Overcast
9:55 PM 66.7 °F 66.7 °F 100% 30.33 in 4.0 mi Calm Calm - N/A   Overcast
10:15 PM 66.7 °F 66.7 °F 100% 30.33 in 7.0 mi Calm Calm - N/A   Overcast
10:35 PM 66.7 °F 66.7 °F 100% 30.32 in 2.0 mi Calm Calm - N/A   Overcast
11:15 PM 66.7 °F 66.7 °F 100% 30.32 in 5.0 mi Calm Calm - N/A   Overcast
11:35 PM 66.6 °F 66.6 °F 100% 30.31 in 4.0 mi Calm Calm - N/A   Overcast
11:55 PM 66.4 °F 66.2 °F 99% 30.31 in 10.0 mi Calm Calm - N/A   Overcast